www.pogodaiklimat.ru

Погода и климат >> Архив погоды >> Россия >> Ненецкий АО >> Коткино


ПОГОДА в Коткино

  • Прогноз погоды в Коткино
  • Монитор погоды в Коткино

АРХИВ ПОГОДЫ в Коткино

Время (UTC), дата Ветер
(напр.,м/с)
 
Видим.   Явления Облачность Т
(С)
Тd
(С)
f
(%)
Тe
(С)
Тes
(С)
Комфортность P
(гПа)
Po
(гПа)
Тmin
(С)
Tmax
(С)
R
(мм)
R24
(мм)
S
(см)
03 13.08 ЮВ 1 50 км ясно +5.6 +4.0 89 +4 +6 1020.1 1017.8 -1.8
06 13.08 Ю 2 50 км ясно +12.7 +4.6 58 +12 +18 1019.4 1017.2
09 13.08 Ю 2 50 км 1/0
[Ci fib]
+16.0 +0.9 36 +16 +24 1018.3 1016.1
12 13.08 Ю 2 50 км 3/0
[Ci fib]
+17.8 0.0 30 +18 +23 1016.9 1014.8
15 13.08 ЮВ 2 50 км 4/0
[Ci fib]
+15.1 +5.0 51 +15 +16 1015.9 1013.7 +18.0
03 14.08 штиль 0 50 км {туман} 8/0
[Ci sp]
+4.8 +4.1 95 +4 +5 1012.6 1010.4 -2.6
06 14.08 Ю 1 50 км {туман} 8/0
[Ci fib]
+12.8 +5.8 62 +13 +19 1011.4 1009.2
09 14.08 Ю 2 50 км 3/0
[Ci fib]
+18.2 +3.9 39 +19 +26 1009.7 1007.5
12 14.08 Ю 2 50 км 1/0
[Ci sp]
+19.4 +2.9 33 +20 +25 1008.9 1006.7
15 14.08 ЮВ 1 50 км 8/0
[Ac lent Ci]
+18.4 +5.6 43 +20 +20 1008.2 1006.1 +19.7
03 15.08 ЮВ 2 4000 м слаб. морось 10/10 210 м
[St]
+9.8 +9.4 97 +8 +8 1008.5 1006.4 +9.2 2
06 15.08 Ю 2 2000 м морось {ливн. осадки} 10/10 210 м
[St]
+12.0 +11.5 97 +11 +11 1008.7 1006.5
09 15.08 Ю 2 50 км {ливн. осадки} 10/3 600 м
[Sc Ac und]
+15.4 +12.5 83 +15 +17 1008.4 1006.3
12 15.08 ЮЗ 2 50 км {ливн. осадки} 9/3 1000 м
[Sc Ac As Ci fib]
+18.0 +11.7 67 +19 +20 1008.2 1006.1
15 15.08 В 2 50 км осадки на расстоянии {ливн. осадки} 10/3 1000 м
[Cb cap Ac lent Ci fib]
+16.0 +15.0 94 +16 +16 1007.6 1005.5 +18.2 0.8
03 16.08 В 4 10 км слаб. дождь 10/9 210 м
[Frnb As op]
+12.7 +12.3 97 +11 +11 1000.0 997.9 +12.2 1
06 16.08 В 3 2000 м дождь 10/10 120 м
[Frnb Ns]
+12.3 +11.9 97 +11 +11 997.6 995.5
09 16.08 СЗ 2 50 км {дождь} 10/9 300 м
[Cb cap Ac As]
+15.2 +14.2 94 +15 +15 996.6 994.5
12 16.08 СЗ 4 50 км осадки на расстоянии {ливн. осадки} 10/10 600 м
[Cb cap]
+14.3 +12.8 91 +13 +13 998.8 996.6
15 16.08 СЗ 5-10
{11}
50 км в посл. час ливневой дождь 10/9 300 м
[Cb cap Ac As]
+13.4 +12.6 95 +11 +11 1002.3 1000.2 +16.0 11
03 17.08 З 3 500 м туман ?/? +8.2 +8.1 99 +5 +5 1013.9 1011.7 +8.0 0.1
06 17.08 СЗ 2 2000 м дымка {туман} 10/10 180 м
[St]
+9.1 +8.8 98 +7 +7 1015.6 1013.4
09 17.08 З 2 50 км 10/10 270 м
[St]
+9.8 +8.7 93 +8 +8 1016.7 1014.5
12 17.08 СЗ 2 50 км 10/10 330 м
[St]
+10.7 +8.9 89 +9 +9 1018.4 1016.2
15 17.08 СЗ 2 50 км 10/10 500 м
[Sc]
+10.9 +8.8 87 +10 +10 1019.3 1017.1 +11.3
03 18.08 ЮЗ 2 50 км 10/4 600 м
[Sc Ac As]
+10.9 +9.6 92 +9 +10 1023.0 1020.8 +8.2
06 18.08 ЮЗ 2 50 км 9/0
[Ac trans]
+14.3 +10.5 78 +14 +16 1023.4 1021.2
09 18.08 ЮЗ 2 50 км 4/4 600 м
[Cu hum]
+18.1 +11.1 64 +19 +23 1023.1 1020.9
12 18.08 ЮЗ 2 50 км 3/3 600 м
[Cu hum]
+20.3 +10.2 52 +22 +25 комфорт 1023.4 1021.3
15 18.08 Ю 1 50 км ясно +19.6 +11.6 60 +22 +23 комфорт 1023.7 1021.5
03 19.08 ЮВ 2 50 км 1/0
[Ci fib]
+11.1 +10.2 94 +10 +11 1025.9 1023.6 +4.4
06 19.08 ЮВ 3 50 км 3/0
[Ci fib]
+18.6 +12.8 69 +19 +24 1025.4 1023.2
09 19.08 Ю 3 50 км 5/4 1000 м
[Cu med, cong Ci fib]
+21.6 +11.6 53 +24 +27 комфорт 1023.9 1021.8
12 19.08 ЮВ 4 50 км 6/5 1000 м
[Sc diur, vesp Ci fib]
+22.1 +12.5 54 +25 +26 комфорт 1022.8 1020.7
15 19.08 ЮВ 3 50 км ясно +20.2 +12.1 60 +22 +23 комфорт 1022.1 1019.9 +23.0

 

Местоположение метеостанции Коткино (Ненецкий АО, Россия): широта 67.03 долгота 51.13 высота над уровнем моря 18 м.

В архиве по умолчанию представлена погода в Коткино за последнюю неделю. Архивные данные за месяц целиком и за предыдущие месяцы, начиная с января 2011 года, Вы можете получить, выбрав интересующий диапазон дат из раскрывающегося списка и нажав кнопку "Ввод!".


*Определитесь, кто Вы:
робот инопланетянин человек

Внимание! Время в таблицах - всемирное. Для получения местного времени необходимо прибавить поправку, которая равна 3 ч.

Смотрите также архив погоды в соседних городах и на ближайших метеорологических станциях:

Погода в Нарьян-Маре (Ненецкий АО, Россия) (105 км)
Погода в Окуневом Носу (Коми, Россия) (108 км)
Погода в Индиге (Ненецкий АО, Россия) (127 км)
Погода в Нижней Пеше (Ненецкий АО, Россия) (150 км)
Погода в Сенгейском Шаре (Ненецкий АО, Россия) (161 км)
Погода в Усть-Цильме (Коми, Россия) (185 км)
Погода на Мысе Микулкин (Ненецкий АО, Россия) (209 км)
Погода в Бугрино (Ненецкий АО, Россия) (211 км)
Погода в Мутном Материке (Коми, Россия) (216 км)
Погода в Ходоварихе (Ненецкий АО, Россия) (238 км)

Пояснения к столбцам:

Ветер - указаны скорость ветра в м/с - средняя за 10 мин, порывы в срок и между сроками (в фигурных скобках) и направление, откуда дует ветер: С - северный, СВ - северо-восточный, В - восточный, ЮВ - юго-восточный, Ю - южный, ЮЗ - юго-западный, З - западный, СЗ - северо-западный.
Видимость - горизонтальная дальность видимости в метрах или километрах. При видимости от 1 до 10 км при отсутствии осадков обычно наблюдается дымка, при ухудшении видимости до 1 км и менее - туман. В сухую погоду видимость может ухудшаться дымом, пылью или мглою.
Явления - указаны атмосферные явления, наблюдавшиеся в срок или в последний час перед сроком; фигурными скобками обозначены явления, наблюдавшиеся между сроками (за 1-3 часа до срока); квадратными скобками обозначены град или гололедные отложения с указанием их диаметра в мм.
Облачность - указаны через наклонную черту общая и нижняя облачность в баллах и высота нижней границы облаков в метрах; квадратными скобками обозначены формы облаков: Ci - перистые, Cs - перисто-слоистые, Cc - перисто-кучевые, Ac - высококучевые, As - высокослоистые, Sc - слоисто-кучевые, Ns - слоисто-дождевые, Cu - кучевые, Cb - кучево-дождевые. Подробнее классификацию облаков см. в Атласе облаков (PDF).
T - Температура воздуха - температура, измеренная на высоте 2 м над землей.
Td - Температура точки росы - температура, при понижении до которой содержащийся в воздухе водяной пар достигнет насыщения.
f - Относительная влажность воздуха - влажноcть воздуха, измеренная на высоте 2 м над землей.
Te - Эффективная температура - температура, которую ощущает одетый по сезону человек в тени. Характеристика душности погоды. При расчете учитывается влияние влажности воздуха и скорости ветра на теплоощущения человека.
Tes - Эффективная температура на солнце - температура, которую ощущает человек, с поправкой на солнечный нагрев. Характеристика знойности погоды. Зависит от высоты солнца над горизонтом, облачности и скорости ветра. Ночью, в пасмурную погоду, а также при ветре 12 м/с и более поправка равна нулю.
P - Атмосферное давление - приведенное к уровню моря атмосферное давление.
Po - Атмосферное давление - измеренное на уровне метеостанции атмосферное давление.
Tmin - Минимальная температура - минимум температуры воздуха на высоте 2 м над землей.
Tmax - Максимальная температура - максимум температуры воздуха на высоте 2 м над землей.
R - Количество осадков - Количество выпавших осадков за период времени, мм. При наведении курсора мыши на число - период времени, за который выпало указанное количество осадков.
R24 - Количество осадков - Количество выпавших осадков за 24 часа, мм.
S - Снежный покров - Высота снежного покрова, см. При наведении курсора мыши на число - состояние снежного покрова и степень покрытия местности в баллах.